| time (UTC) | temp F | wind direction | speed MPH | gust MPH | rain 1hr in | rain 24hr in | rain mn in | humidity % | barometer mb |
| 20260905222517 | 68 | 260 | 1.0 | 5.0 | 0.00 | 0.00 | 0.00 | 78 | 1013.7 |
| 20260905222018 | 69 | 0 | 1.0 | 5.0 | 0.00 | 0.00 | 0.00 | 78 | 1013.6 |
| 20260905221534 | 69 | 34 | 1.0 | 5.0 | 0.00 | 0.00 | 0.00 | 77 | 1013.6 |
| 20260905221020 | 69 | 348 | 0.0 | 4.0 | 0.00 | 0.00 | 0.00 | 78 | 1013.4 |
| 20260905220518 | 69 | 0 | 1.0 | 4.0 | 0.00 | 0.00 | 0.00 | 76 | 1013.3 |
| 20260905215520 | 70 | 324 | 2.0 | 6.0 | 0.00 | 0.00 | 0.00 | 74 | 1013.3 |
| 20260905215019 | 71 | 324 | 2.0 | 6.0 | 0.00 | 0.00 | 0.00 | 73 | 1013.3 |
| 20260905214536 | 72 | 332 | 3.0 | 8.0 | 0.00 | 0.00 | 0.00 | 71 | 1013.2 |
| 20260905214018 | 71 | 350 | 2.0 | 8.0 | 0.00 | 0.00 | 0.00 | 73 | 1013.2 |
| 20260905213521 | 72 | 316 | 3.0 | 9.0 | 0.00 | 0.00 | 0.00 | 71 | 1013.2 |
| 20260905212520 | 73 | 36 | 4.0 | 10.0 | 0.00 | 0.00 | 0.00 | 69 | 1013.2 |
| 20260905212020 | 73 | 15 | 4.0 | 10.0 | 0.00 | 0.00 | 0.00 | 68 | 1013.2 |
| 20260905211020 | 73 | 52 | 3.0 | 10.0 | 0.00 | 0.00 | 0.00 | 70 | 1013.1 |
| 20260905210520 | 72 | 270 | 3.0 | 7.0 | 0.00 | 0.00 | 0.00 | 70 | 1013.1 |
| 20260905205516 | 72 | 319 | 4.0 | 9.0 | 0.00 | 0.00 | 0.00 | 68 | 1013.1 |
| 20260905205020 | 73 | 355 | 3.0 | 9.0 | 0.00 | 0.00 | 0.00 | 69 | 1013.0 |
| 20260905204016 | 73 | 47 | 6.0 | 12.0 | 0.00 | 0.00 | 0.00 | 66 | 1013.0 |
| 20260905202523 | 72 | 307 | 2.0 | 9.0 | 0.00 | 0.00 | 0.00 | 70 | 1012.9 |
| 20260905202020 | 72 | 335 | 2.0 | 9.0 | 0.00 | 0.00 | 0.00 | 70 | 1013.0 |
| 20260905201018 | 73 | 5 | 3.0 | 11.0 | 0.00 | 0.00 | 0.00 | 67 | 1012.9 |
| 20260905200518 | 73 | 54 | 5.0 | 11.0 | 0.00 | 0.00 | 0.00 | 66 | 1012.9 |
| 20260905195523 | 72 | 15 | 3.0 | 10.0 | 0.00 | 0.00 | 0.00 | 71 | 1013.0 |
| 20260905195020 | 72 | 12 | 4.0 | 9.0 | 0.00 | 0.00 | 0.00 | 72 | 1013.0 |
| 20260905194020 | 71 | 340 | 4.0 | 10.0 | 0.00 | 0.00 | 0.00 | 71 | 1013.0 |
| 20260905193518 | 71 | 290 | 4.0 | 10.0 | 0.00 | 0.00 | 0.00 | 70 | 1013.1 |
| 20260905192019 | 72 | 35 | 3.0 | 10.0 | 0.00 | 0.00 | 0.00 | 69 | 1013.1 |
| 20260905191020 | 71 | 41 | 3.0 | 9.0 | 0.00 | 0.00 | 0.00 | 70 | 1013.1 |
| 20260905190521 | 72 | 16 | 3.0 | 6.0 | 0.00 | 0.00 | 0.00 | 70 | 1013.2 |
| 20260905185518 | 72 | 34 | 3.0 | 8.0 | 0.00 | 0.00 | 0.00 | 67 | 1013.2 |
| 20260905185020 | 73 | 42 | 2.0 | 8.0 | 0.00 | 0.00 | 0.00 | 67 | 1013.2 |
| 20260905184019 | 72 | 74 | 2.0 | 10.0 | 0.00 | 0.00 | 0.00 | 70 | 1013.1 |
| 20260905183519 | 73 | 32 | 5.0 | 9.0 | 0.00 | 0.00 | 0.00 | 66 | 1013.2 |
| 20260905182521 | 73 | 21 | 2.0 | 9.0 | 0.00 | 0.00 | 0.00 | 71 | 1013.2 |
| 20260905182018 | 73 | 328 | 3.0 | 9.0 | 0.00 | 0.00 | 0.00 | 66 | 1013.1 |
| 20260905181018 | 72 | 26 | 1.0 | 6.0 | 0.00 | 0.00 | 0.00 | 68 | 1013.2 |
| 20260905180519 | 72 | 5 | 2.0 | 6.0 | 0.00 | 0.00 | 0.00 | 68 | 1013.1 |
| 20260905180037 | 72 | 51 | 1.0 | 6.0 | 0.00 | 0.00 | 0.00 | 73 | 1013.2 |
| 20260905175521 | 71 | 293 | 2.0 | 5.0 | 0.00 | 0.00 | 0.00 | 73 | 1013.3 |
| 20260905175021 | 70 | 333 | 1.0 | 4.0 | 0.00 | 0.00 | 0.00 | 73 | 1013.2 |
| 20260905174018 | 70 | 360 | 2.0 | 5.0 | 0.00 | 0.00 | 0.00 | 73 | 1013.3 |
| 20260905173519 | 70 | 29 | 2.0 | 7.0 | 0.00 | 0.00 | 0.00 | 74 | 1013.4 |
| 20260905172516 | 71 | 44 | 3.0 | 11.0 | 0.00 | 0.00 | 0.00 | 68 | 1013.4 |
| 20260905172020 | 72 | 17 | 3.0 | 9.0 | 0.00 | 0.00 | 0.00 | 70 | 1013.4 |
| 20260905171535 | 72 | 340 | 3.0 | 8.0 | 0.00 | 0.00 | 0.00 | 72 | 1013.5 |
| 20260905171016 | 71 | 261 | 4.0 | 9.0 | 0.00 | 0.00 | 0.00 | 70 | 1013.5 |
| 20260905170518 | 70 | 314 | 5.0 | 9.0 | 0.00 | 0.00 | 0.00 | 73 | 1013.6 |
| 20260905170036 | 71 | 327 | 3.0 | 8.0 | 0.00 | 0.00 | 0.00 | 70 | 1013.6 |
| 20260905165020 | 70 | 327 | 3.0 | 5.0 | 0.00 | 0.00 | 0.00 | 73 | 1013.6 |
| 20260905164018 | 70 | 319 | 3.0 | 9.0 | 0.00 | 0.00 | 0.00 | 74 | 1013.6 |
| 20260905163518 | 70 | 317 | 3.0 | 9.0 | 0.00 | 0.00 | 0.00 | 70 | 1013.8 |
| 20260905163038 | 70 | 34 | 3.0 | 9.0 | 0.00 | 0.00 | 0.00 | 74 | 1013.8 |
| 20260905162519 | 71 | 11 | 3.0 | 8.0 | 0.00 | 0.00 | 0.00 | 70 | 1013.8 |
| 20260905162017 | 71 | 302 | 3.0 | 9.0 | 0.00 | 0.00 | 0.00 | 73 | 1013.8 |
| 20260905161021 | 70 | 318 | 5.0 | 9.0 | 0.00 | 0.00 | 0.00 | 72 | 1013.8 |
| 20260905160520 | 70 | 360 | 4.0 | 9.0 | 0.00 | 0.00 | 0.00 | 71 | 1013.7 |
| 20260905155518 | 70 | 37 | 3.0 | 11.0 | 0.00 | 0.00 | 0.00 | 76 | 1013.8 |
| 20260905155018 | 69 | 25 | 4.0 | 11.0 | 0.00 | 0.00 | 0.00 | 75 | 1013.9 |
| 20260905154019 | 69 | 319 | 3.0 | 8.0 | 0.00 | 0.00 | 0.00 | 74 | 1013.8 |
| 20260905153517 | 69 | 52 | 3.0 | 10.0 | 0.00 | 0.00 | 0.00 | 75 | 1013.8 |
| 20260905152519 | 69 | 51 | 3.0 | 10.0 | 0.00 | 0.00 | 0.00 | 78 | 1013.9 |
| 20260905152018 | 68 | 14 | 5.0 | 10.0 | 0.00 | 0.00 | 0.00 | 75 | 1013.9 |
| 20260905151023 | 69 | 334 | 5.0 | 10.0 | 0.00 | 0.00 | 0.00 | 76 | 1014.0 |
| 20260905150519 | 69 | 310 | 3.0 | 8.0 | 0.00 | 0.00 | 0.00 | 76 | 1013.9 |
| 20260905145516 | 69 | 55 | 4.0 | 14.0 | 0.00 | 0.00 | 0.00 | 75 | 1013.9 |
| 20260905145017 | 68 | 322 | 5.0 | 14.0 | 0.00 | 0.00 | 0.00 | 77 | 1013.9 |
| 20260905144540 | 68 | 56 | 6.0 | 11.0 | 0.00 | 0.00 | 0.00 | 77 | 1013.9 |
| 20260905144018 | 68 | 49 | 3.0 | 11.0 | 0.00 | 0.00 | 0.00 | 78 | 1013.9 |
| 20260905143519 | 69 | 44 | 4.0 | 11.0 | 0.00 | 0.00 | 0.00 | 77 | 1013.8 |
| 20260905142517 | 68 | 355 | 6.0 | 13.0 | 0.00 | 0.00 | 0.00 | 80 | 1013.8 |
| 20260905142017 | 68 | 32 | 5.0 | 10.0 | 0.00 | 0.00 | 0.00 | 80 | 1013.9 |
| 20260905141019 | 66 | 32 | 4.0 | 10.0 | 0.00 | 0.00 | 0.00 | 82 | 1013.8 |
| 20260905140518 | 66 | 0 | 3.0 | 10.0 | 0.00 | 0.00 | 0.00 | 82 | 1013.8 |
| 20260905135520 | 66 | 320 | 3.0 | 8.0 | 0.00 | 0.00 | 0.00 | 83 | 1013.9 |
| 20260905135020 | 66 | 319 | 4.0 | 11.0 | 0.00 | 0.00 | 0.00 | 83 | 1013.8 |
| 20260905134023 | 67 | 26 | 3.0 | 10.0 | 0.00 | 0.00 | 0.00 | 83 | 1013.9 |
| 20260905133518 | 67 | 305 | 4.0 | 9.0 | 0.00 | 0.00 | 0.00 | 84 | 1014.0 |
| 20260905132516 | 65 | 51 | 3.0 | 8.0 | 0.00 | 0.00 | 0.00 | 87 | 1013.9 |
| 20260905132017 | 65 | 32 | 3.0 | 8.0 | 0.00 | 0.00 | 0.00 | 86 | 1013.8 |
| 20260905131541 | 64 | 355 | 4.0 | 11.0 | 0.00 | 0.00 | 0.00 | 86 | 1013.8 |
| 20260905131018 | 65 | 26 | 3.0 | 11.0 | 0.00 | 0.00 | 0.00 | 86 | 1013.9 |
| 20260905125518 | 64 | 32 | 5.0 | 10.0 | 0.00 | 0.00 | 0.00 | 89 | 1013.9 |
| 20260905125020 | 64 | 47 | 2.0 | 7.0 | 0.00 | 0.00 | 0.00 | 91 | 1013.9 |
| 20260905124019 | 63 | 0 | 1.0 | 7.0 | 0.00 | 0.00 | 0.00 | 95 | 1013.8 |
| 20260905123519 | 62 | 19 | 1.0 | 7.0 | 0.00 | 0.00 | 0.00 | 96 | 1013.9 |
| 20260905122517 | 60 | 59 | 1.0 | 6.0 | 0.00 | 0.00 | 0.00 | 97 | 1014.2 |
| 20260905122016 | 60 | 0 | 0.0 | 0.0 | 0.00 | 0.00 | 0.00 | 98 | 1014.1 |
| 20260905121028 | 58 | 0 | 0.0 | 0.0 | 0.00 | 0.00 | 0.00 | 97 | 1014.0 |
| 20260905120516 | 58 | 0 | 0.0 | 0.0 | 0.00 | 0.00 | 0.00 | 97 | 1014.0 |
| 20260905115520 | 57 | 0 | 0.0 | 0.0 | 0.00 | 0.00 | 0.00 | 97 | 1014.0 |
| 20260905115020 | 57 | 0 | 0.0 | 0.0 | 0.00 | 0.00 | 0.00 | 97 | 1013.8 |
| 20260905114016 | 56 | 0 | 0.0 | 0.0 | 0.00 | 0.00 | 0.00 | 97 | 1013.8 |
| 20260905113517 | 56 | 0 | 0.0 | 0.0 | 0.00 | 0.00 | 0.00 | 97 | 1013.7 |
| 20260905113046 | 56 | 0 | 0.0 | 0.0 | 0.00 | 0.00 | 0.00 | 97 | 1013.7 |
| 20260905112518 | 56 | 0 | 0.0 | 0.0 | 0.00 | 0.00 | 0.00 | 96 | 1013.5 |
| 20260905112018 | 56 | 0 | 0.0 | 0.0 | 0.00 | 0.00 | 0.00 | 96 | 1013.6 |
| 20260905111558 | 56 | 0 | 0.0 | 0.0 | 0.00 | 0.00 | 0.00 | 96 | 1013.5 |
| 20260905110518 | 56 | 0 | 0.0 | 0.0 | 0.00 | 0.00 | 0.00 | 96 | 1013.5 |
| 20260905105520 | 56 | 0 | 0.0 | 0.0 | 0.00 | 0.00 | 0.00 | 96 | 1013.3 |
| 20260905105019 | 56 | 0 | 0.0 | 0.0 | 0.00 | 0.00 | 0.00 | 96 | 1013.2 |
| 20260905104016 | 56 | 0 | 0.0 | 0.0 | 0.00 | 0.00 | 0.00 | 96 | 1012.9 |
| 20260905103522 | 56 | 0 | 0.0 | 0.0 | 0.00 | 0.00 | 0.00 | 96 | 1012.8 |
| 20260905103039 | 56 | 0 | 0.0 | 0.0 | 0.00 | 0.00 | 0.00 | 96 | 1012.7 |
| 20260905102521 | 56 | 0 | 0.0 | 0.0 | 0.00 | 0.00 | 0.00 | 96 | 1012.6 |
| 20260905102018 | 56 | 0 | 0.0 | 0.0 | 0.00 | 0.00 | 0.00 | 96 | 1012.6 |
| 20260905101020 | 57 | 0 | 0.0 | 0.0 | 0.00 | 0.00 | 0.00 | 96 | 1012.5 |
| 20260905100520 | 57 | 0 | 0.0 | 0.0 | 0.00 | 0.00 | 0.00 | 96 | 1012.5 |
| 20260905095521 | 57 | 0 | 0.0 | 0.0 | 0.00 | 0.00 | 0.00 | 96 | 1012.5 |
| 20260905095021 | 57 | 0 | 0.0 | 0.0 | 0.00 | 0.00 | 0.00 | 96 | 1012.4 |
| 20260905094018 | 57 | 0 | 0.0 | 0.0 | 0.00 | 0.00 | 0.00 | 96 | 1012.4 |
| 20260905093518 | 57 | 0 | 0.0 | 0.0 | 0.00 | 0.00 | 0.00 | 96 | 1012.4 |
| 20260905093034 | 57 | 0 | 0.0 | 0.0 | 0.00 | 0.00 | 0.00 | 96 | 1012.4 |
| 20260905092518 | 57 | 0 | 0.0 | 0.0 | 0.00 | 0.00 | 0.00 | 96 | 1012.4 |
| 20260905092017 | 57 | 0 | 0.0 | 0.0 | 0.00 | 0.00 | 0.00 | 96 | 1012.4 |
| 20260905091018 | 58 | 0 | 0.0 | 0.0 | 0.00 | 0.00 | 0.00 | 96 | 1012.4 |
| 20260905090520 | 58 | 0 | 0.0 | 0.0 | 0.00 | 0.00 | 0.00 | 96 | 1012.5 |
| 20260905085516 | 58 | 0 | 0.0 | 0.0 | 0.00 | 0.00 | 0.00 | 96 | 1012.7 |
| 20260905085019 | 58 | 0 | 0.0 | 0.0 | 0.00 | 0.00 | 0.00 | 95 | 1012.7 |
| 20260905084542 | 58 | 0 | 0.0 | 0.0 | 0.00 | 0.00 | 0.00 | 95 | 1012.5 |
| 20260905084016 | 58 | 0 | 0.0 | 0.0 | 0.00 | 0.00 | 0.00 | 95 | 1012.6 |
| 20260905083516 | 58 | 0 | 0.0 | 0.0 | 0.00 | 0.00 | 0.00 | 95 | 1012.7 |
| 20260905083035 | 59 | 0 | 0.0 | 0.0 | 0.00 | 0.00 | 0.00 | 95 | 1012.6 |
| 20260905082518 | 59 | 0 | 0.0 | 0.0 | 0.00 | 0.00 | 0.00 | 95 | 1012.7 |
| 20260905082020 | 59 | 0 | 0.0 | 0.0 | 0.00 | 0.00 | 0.00 | 94 | 1012.6 |
| 20260905081020 | 59 | 0 | 0.0 | 0.0 | 0.00 | 0.00 | 0.00 | 94 | 1012.6 |
| 20260905080520 | 59 | 0 | 0.0 | 0.0 | 0.00 | 0.00 | 0.00 | 93 | 1012.8 |
| 20260905075519 | 60 | 0 | 0.0 | 0.0 | 0.00 | 0.00 | 0.00 | 93 | 1012.8 |
| 20260905075016 | 60 | 0 | 0.0 | 0.0 | 0.00 | 0.00 | 0.00 | 93 | 1012.9 |
| 20260905074540 | 60 | 0 | 0.0 | 0.0 | 0.00 | 0.00 | 0.00 | 92 | 1012.8 |
| 20260905074019 | 60 | 0 | 0.0 | 0.0 | 0.00 | 0.00 | 0.00 | 92 | 1012.8 |
| 20260905073519 | 60 | 0 | 0.0 | 0.0 | 0.00 | 0.00 | 0.00 | 92 | 1012.8 |
| 20260905072520 | 60 | 0 | 0.0 | 0.0 | 0.00 | 0.00 | 0.00 | 92 | 1012.8 |
| 20260905072022 | 60 | 0 | 0.0 | 0.0 | 0.00 | 0.00 | 0.00 | 92 | 1012.7 |
| 20260905071022 | 60 | 0 | 0.0 | 0.0 | 0.00 | 0.00 | 0.00 | 91 | 1012.9 |
| 20260905070519 | 61 | 0 | 0.0 | 0.0 | 0.00 | 0.00 | 0.00 | 90 | 1013.0 |
| 20260905065523 | 61 | 0 | 0.0 | 0.0 | 0.00 | 0.00 | 0.00 | 90 | 1012.9 |
| 20260905065018 | 61 | 0 | 0.0 | 0.0 | 0.00 | 0.00 | 0.00 | 89 | 1013.0 |
| 20260905064019 | 62 | 0 | 0.0 | 0.0 | 0.00 | 0.00 | 0.00 | 88 | 1013.0 |
| 20260905063517 | 62 | 0 | 0.0 | 0.0 | 0.00 | 0.00 | 0.00 | 88 | 1013.1 |
| 20260905063035 | 62 | 0 | 0.0 | 0.0 | 0.00 | 0.00 | 0.00 | 88 | 1013.1 |
| 20260905062521 | 63 | 0 | 0.0 | 0.0 | 0.00 | 0.00 | 0.00 | 87 | 1013.1 |
| 20260905062020 | 63 | 0 | 0.0 | 0.0 | 0.00 | 0.00 | 0.00 | 87 | 1013.2 |
| 20260905061019 | 63 | 0 | 0.0 | 0.0 | 0.00 | 0.00 | 0.00 | 86 | 1013.3 |
| 20260905060520 | 63 | 0 | 0.0 | 0.0 | 0.00 | 0.00 | 0.00 | 86 | 1013.3 |
| 20260905055520 | 64 | 0 | 0.0 | 0.0 | 0.00 | 0.00 | 0.00 | 87 | 1013.3 |
| 20260905055019 | 64 | 0 | 0.0 | 2.0 | 0.00 | 0.00 | 0.00 | 87 | 1013.3 |
| 20260905054018 | 64 | 0 | 0.0 | 2.0 | 0.00 | 0.00 | 0.00 | 87 | 1013.4 |
| 20260905053517 | 64 | 0 | 0.0 | 2.0 | 0.00 | 0.00 | 0.00 | 87 | 1013.4 |
| 20260905053039 | 64 | 0 | 0.0 | 2.0 | 0.00 | 0.00 | 0.00 | 87 | 1013.5 |
| 20260905052516 | 64 | 338 | 0.0 | 2.0 | 0.00 | 0.00 | 0.00 | 88 | 1013.6 |
| 20260905052022 | 64 | 0 | 0.0 | 1.0 | 0.00 | 0.00 | 0.00 | 89 | 1013.7 |
| 20260905051020 | 64 | 0 | 0.0 | 0.0 | 0.00 | 0.00 | 0.00 | 89 | 1013.7 |
| 20260905050518 | 64 | 0 | 0.0 | 0.0 | 0.00 | 0.00 | 0.00 | 89 | 1013.7 |
| 20260905045517 | 65 | 0 | 0.0 | 0.0 | 0.00 | 0.00 | 0.00 | 89 | 1013.6 |
| 20260905045024 | 65 | 0 | 0.0 | 0.0 | 0.00 | 0.00 | 0.00 | 88 | 1013.7 |
| 20260905044018 | 65 | 0 | 0.0 | 0.0 | 0.00 | 0.00 | 0.00 | 87 | 1013.7 |
| 20260905043516 | 65 | 0 | 0.0 | 0.0 | 0.00 | 0.00 | 0.00 | 87 | 1013.8 |
| 20260905043037 | 65 | 0 | 0.0 | 0.0 | 0.00 | 0.00 | 0.00 | 87 | 1013.8 |
| 20260905042520 | 65 | 0 | 0.0 | 0.0 | 0.00 | 0.00 | 0.00 | 87 | 1013.7 |
| 20260905042022 | 65 | 0 | 0.0 | 0.0 | 0.00 | 0.00 | 0.00 | 87 | 1013.7 |
| 20260905041020 | 65 | 0 | 0.0 | 0.0 | 0.00 | 0.00 | 0.00 | 88 | 1013.7 |
| 20260905040517 | 65 | 0 | 0.0 | 1.0 | 0.00 | 0.00 | 0.00 | 88 | 1013.7 |
| 20260905035518 | 65 | 0 | 0.0 | 1.0 | 0.00 | 0.01 | 0.00 | 88 | 1013.6 |
| 20260905035020 | 65 | 0 | 0.0 | 1.0 | 0.00 | 0.01 | 0.00 | 88 | 1013.7 |
| 20260905034534 | 65 | 0 | 0.0 | 1.0 | 0.00 | 0.01 | 0.00 | 89 | 1013.7 |
| 20260905033523 | 66 | 0 | 0.0 | 0.0 | 0.00 | 0.01 | 0.00 | 88 | 1013.7 |
| 20260905032519 | 66 | 0 | 0.0 | 0.0 | 0.00 | 0.01 | 0.00 | 87 | 1013.6 |
| 20260905032017 | 66 | 0 | 0.0 | 1.0 | 0.00 | 0.01 | 0.00 | 87 | 1013.5 |
| 20260905031019 | 66 | 0 | 0.0 | 0.0 | 0.00 | 0.01 | 0.00 | 86 | 1013.6 |
| 20260905030517 | 66 | 0 | 0.0 | 0.0 | 0.00 | 0.01 | 0.00 | 86 | 1013.4 |
| 20260905030049 | 66 | 0 | 0.0 | 1.0 | 0.00 | 0.01 | 0.00 | 86 | 1013.5 |
| 20260905025519 | 67 | 0 | 0.0 | 4.0 | 0.00 | 0.01 | 0.00 | 87 | 1013.4 |
| 20260905025018 | 66 | 0 | 0.0 | 4.0 | 0.00 | 0.01 | 0.00 | 87 | 1013.5 |
| 20260905024537 | 66 | 15 | 0.0 | 1.0 | 0.00 | 0.01 | 0.00 | 88 | 1013.5 |
| 20260905024019 | 67 | 0 | 0.0 | 0.0 | 0.00 | 0.01 | 0.00 | 88 | 1013.6 |
| 20260905023519 | 67 | 0 | 0.0 | 0.0 | 0.00 | 0.01 | 0.00 | 88 | 1013.6 |
| 20260905022522 | 67 | 0 | 0.0 | 0.0 | 0.00 | 0.01 | 0.00 | 87 | 1013.6 |
| 20260905022022 | 67 | 0 | 0.0 | 0.0 | 0.00 | 0.01 | 0.00 | 87 | 1013.6 |
| 20260905021016 | 67 | 0 | 0.0 | 0.0 | 0.00 | 0.01 | 0.00 | 87 | 1013.7 |
| 20260905020520 | 0 | 0.0 | 0.0 | 0.00 | 0.01 | 0.00 | 1013.6 | ||
| 20260905020039 | 0 | 0.0 | 0.0 | 0.00 | 0.01 | 0.00 | 1013.7 | ||
| 20260905015519 | 0 | 0.0 | 0.0 | 0.00 | 0.01 | 0.00 | 1013.7 | ||
| 20260905015018 | 0 | 0.0 | 0.0 | 0.00 | 0.01 | 0.00 | 1013.7 | ||
| 20260905014021 | 0 | 0.0 | 0.0 | 0.00 | 0.01 | 0.00 | 1013.7 | ||
| 20260905013520 | 0 | 0.0 | 0.0 | 0.00 | 0.01 | 0.00 | 1013.7 | ||
| 20260905012518 | 0 | 0.0 | 0.0 | 0.00 | 0.01 | 0.00 | 1013.8 | ||
| 20260905012018 | 0 | 0.0 | 0.0 | 0.00 | 0.01 | 0.00 | 1013.8 | ||
| 20260905011018 | 0 | 0.0 | 0.0 | 0.00 | 0.01 | 0.00 | 1013.9 | ||
| 20260905010517 | 0 | 0.0 | 0.0 | 0.00 | 0.01 | 0.00 | 1013.8 | ||
| 20260905010041 | 0 | 0.0 | 0.0 | 0.00 | 0.01 | 0.00 | 1013.9 | ||
| 20260905005520 | 0 | 0.0 | 0.0 | 0.00 | 0.01 | 0.00 | 1013.9 | ||
| 20260905005023 | 0 | 0.0 | 0.0 | 0.00 | 0.01 | 0.00 | 1013.9 | ||
| 20260905004020 | 0 | 0.0 | 0.0 | 0.00 | 0.01 | 0.00 | 1013.7 | ||
| 20260905003520 | 0 | 0.0 | 0.0 | 0.00 | 0.01 | 0.00 | 1013.6 | ||
| 20260905002519 | 0 | 0.0 | 0.0 | 0.00 | 0.01 | 0.00 | 1013.5 | ||
| 20260905002018 | 0 | 0.0 | 0.0 | 0.00 | 0.01 | 0.00 | 1013.4 | ||
| 20260905001018 | 0 | 0.0 | 0.0 | 0.00 | 0.01 | 0.00 | 1013.4 | ||
| 20260905000518 | 0 | 0.0 | 0.0 | 0.00 | 0.01 | 0.00 | 1013.1 | ||
| 20260905000034 | 0 | 0.0 | 0.0 | 0.00 | 0.01 | 0.00 | 1013.3 | ||
| 20260904235518 | 0 | 0.0 | 0.0 | 0.00 | 0.01 | 0.00 | 1013.3 | ||
| 20260904235015 | 0 | 0.0 | 0.0 | 0.00 | 0.01 | 0.00 | 1013.2 | ||
| 20260904234024 | 0 | 0.0 | 0.0 | 0.00 | 0.01 | 0.00 | 1013.3 | ||
| 20260904233520 | 0 | 0.0 | 0.0 | 0.00 | 0.01 | 0.00 | 1013.0 | ||
| 20260904232519 | 0 | 0.0 | 0.0 | 0.00 | 0.01 | 0.00 | 1013.2 | ||
| 20260904232023 | 0 | 0.0 | 0.0 | 0.00 | 0.01 | 0.00 | 1013.1 | ||
| 20260904231018 | 0 | 1.0 | 0.0 | 0.00 | 0.01 | 0.00 | 1013.2 | ||
| 20260904230519 | 71 | 1.0 | 3.0 | 0.00 | 0.01 | 0.00 | 80 | 1013.3 | |
| 20260904225516 | 72 | 350 | 1.0 | 3.0 | 0.00 | 0.01 | 0.00 | 77 | 1013.3 |
| 20260904225018 | 73 | 350 | 1.0 | 3.0 | 0.00 | 0.01 | 0.00 | 76 | 1013.3 |
| 20260904224016 | 74 | 352 | 1.0 | 4.0 | 0.00 | 0.01 | 0.00 | 73 | 1013.5 |
| 20260904223519 | 74 | 350 | 1.0 | 3.0 | 0.00 | 0.01 | 0.00 | 73 | 1013.5 |